Regional Weather Roundup
Issued by NWS Upton, NY

Current Version | Previous Version | Graphics & Text | Print | Product List | Glossary Off
Versions: 1 2 3 4 5 6 7 8 9 10 11 12 13 14 15 16 17 18 19 20 21 22 23 24 25 26 27 28 29 30 31 32 33 34 35 36 37 38 39 40 41 42 43 44 45 46 47 48 49 50

000
ASUS41 KOKX 201505
RWROKX

REGIONAL WEATHER ROUNDUP
NATIONAL WEATHER SERVICE NEW YORK NY
1000 AM EST THU NOV 20 2014

NOTE: "FAIR" INDICATES FEW OR NO CLOUDS BELOW 12,000 FEET WITH NO
SIGNIFICANT WEATHER AND/OR OBSTRUCTIONS TO VISIBILITY.

NYZ071-072-176-178-NJZ106-104-201600-
NEW YORK CITY METRO AREA


CITY           SKY/WX    TMP DP  RH WIND       PRES   REMARKS
CENTRAL PARK   CLOUDY    39  19  44 W8        29.96S WCI  33
LAGUARDIA APRT PTSUNNY   40  20  44 SW10      29.93F WCI  33
KENNEDY INTL   PTSUNNY   42  24  49 SW13      29.95F
NEWARK/LIBERTY PTSUNNY   37  20  50 W10       29.95S WCI  30
BRNX BOT. GARD   N/A    N/A N/A N/A SW18      29.95R
TETERBORO      PTSUNNY   38  17  42 W12       29.94S WCI  30
$$

NYZ177-179-078>081-201600-
LONG ISLAND NEW YORK

CITY           SKY/WX    TMP DP  RH WIND       PRES   REMARKS
FARMINGDALE    MOSUNNY   45  21  38 W9        29.93F
ISLIP          MOSUNNY   45  20  36 W15       29.92F
SHIRLEY        SUNNY     45  22  40 W10       29.94F
WESTHAMPTON    SUNNY     45  23  42 SW12      29.94F
MONTAUK POINT    N/A     45  24  43 SW10      29.94F
$$

NYZ052-065-067-201600-
HUDSON VALLEY

CITY           SKY/WX    TMP DP  RH WIND       PRES   REMARKS
WHITE PLAINS   PTSUNNY   40  17  39 SW9       29.90S WCI  34
NEWBURGH       MOSUNNY   36  19  51 W9G18     29.90S WCI  29
MONTGOMERY     SUNNY     37  18  46 SW13      29.88F WCI  29
POUGHKEEPSIE   SUNNY     39  18  42 SW12      29.90F WCI  32
ALBANY         MOSUNNY   36  18  48 S12       29.85S WCI  28
$$

NJZ001-105-106-008-010-013-015-019>022-104-201600-
NEW JERSEY

CITY           SKY/WX    TMP DP  RH WIND       PRES   REMARKS
NEWARK/LIBERTY PTSUNNY   37  20  50 W10       29.95S WCI  30
TETERBORO      PTSUNNY   38  17  42 W12       29.94S WCI  30
CALDWELL       MOSUNNY   34  18  52 VRB5      29.95S WCI  30
MORRISTOWN     MOSUNNY   36  19  51 SW7       29.95S WCI  30
SOMERVILLE     PTSUNNY   33  21  61 CALM      29.94S
SUSSEX         SUNNY     32  18  56 S9        29.90S WCI  24
ANDOVER          N/A     34  18  52 VRB3      29.92S
TRENTON        CLOUDY    38  22  52 SW8       29.94F WCI  32
MILLVILLE      CLOUDY    41  24  51 SW12      29.99S
ATLANTIC CITY  MOSUNNY   45  24  43 W10       29.98S
WRIGHTSTOWN    NOT AVBL
TOMS RIVER     CLOUDY    43  19  39 W7        29.97S
BELMAR         CLOUDY    41  18  38 SW9       29.95S
$$

PAZ047>061-062-071-201600-
EASTERN PENNSYLVANIA

CITY           SKY/WX    TMP DP  RH WIND       PRES   REMARKS
PHILADELPHIA   CLOUDY    40  21  46 SW14      29.98F WCI  32
ALLENTOWN      MOSUNNY   33  17  51 S5        29.94F WCI  29
SCRANTON       SUNNY     34  17  50 W13       29.88F WCI  25
$$

CTZ002-004>006-009-010-012-RIZ004-006-007-MAZ004-011-015-201600-
SOUTHERN NEW ENGLAND
 IN CT

CITY           SKY/WX    TMP DP  RH WIND       PRES   REMARKS
BRADLEY INTL   MOSUNNY   42  19  39 SW12      29.87F
HARTFORD       SUNNY     42  19  39 S7        29.90F
DANBURY        MOSUNNY   39  17  41 W14       29.91S WCI  31
WTRBRY/OXFORD  PTSUNNY   39  19  45 W10       29.89F WCI  32
BRIDGEPORT     SUNNY     43  22  43 SW10      29.91F
MERIDEN        SUNNY     45  19  35 W15G28    29.90F
NEW HAVEN      MOSUNNY   45  23  42 SW10G17   29.91F
CHESTER        FAIR      41  21  45 W6G18     29.90F
GROTON         SUNNY     44  29  55 SW16G23   29.91F
WILLIMANTIC    MOSUNNY   42  18  37 VRB6G18   29.90F

 IN RI

CITY           SKY/WX    TMP DP  RH WIND       PRES   REMARKS
PROVIDENCE     MOSUNNY   44  25  47 SW13      29.90F
BLOCK ISLAND   PTSUNNY   45  25  45 W14G21    29.92F
WESTERLY       SUNNY     44  26  49 SW9G18    29.92F

 IN MA

CITY           SKY/WX    TMP DP  RH WIND       PRES   REMARKS
BOSTON         MOSUNNY   42  21  43 SW15      29.88F
WORCESTER      SUNNY     36  18  48 SW18      29.83S WCI  26
WESTFIELD      SUNNY     38  18  44 S13       29.86F WCI  30
PROVINCETOWN   CLOUDY    45  27  49 SW17      29.91F
NANTUCKET      CLOUDY    52  37  56 SW22G28   29.92F
$$

ANZ330-335-338-340-345-350-353-355-201600-
COASTAL MARINE OBSERVATIONS


STATION/POSITION TIME  SKY/WX   TEMP    WIND        PRES    VSBY  WAVE
                                AIR SEA DIR/SP/G                  HT/PER
                 (UTC)          (F)     (DEG/KT/KT) (MB)    (MI)  (FT/S)
NY HARB ENTRANCE 1500            45 57  250/ 19/ 23 1013.9          5/ 8
4S FIRE IS       1500               53                N/A           7/ 8
20S FIRE ISLAND  1500            48 56  270/ 21/ 27 1013.4          8/ 8
23SW MTP         1500                                 N/A           9/ 8
HUDSON CANYON    1500            49 59  260/ 19/ 23 1014.6          8/ 8
EXECUTION ROCKS  1500            42 49  240/ 10/ 16   N/A
WESTERN LI SOUND 1500            42     230/ 14/ 16   N/A           2/ 3
CENTRAL LI SOUND 1500            42 52  240/ 16/ 17   N/A           3/ 4
EASTERN LI SOUND 1400            43 54  220/ 16/ 19   N/A
ROBBINS REEF     1500            38     250/ 11/ 15 1012.7
$$


>>>>>>>>>>>>>>>>>>>>>>>>>>>> KEY <<<<<<<<<<<<<<<<<<<<<<<<<<<
>                                                          <
>     SKY/WX - SKY CONDITION/PRESENT WEATHER               <
>     TMP    - TEMPERATURE IN FAHRENHEIT                   <
>     DP     - DEWPOINT IN FAHRENHEIT                      <
>     RH     - RELATIVE HUMIDITY IN PERCENT                <
>     WIND   - DIRECTION AND SPEED IN MPH                  <
>     PRES   - MEAN SEA LEVEL PRESSURE IN INCHES OF HG     <
>     WCI    - WIND CHILL INDEX                            <
>     VSB    - VISIBILITY IN MILES                         <
>     HX     - HEAT INDEX                                  <
>     TC     - TEMPERATURE IN CELSIUS                      <
>     VRB    - VARIABLE WIND DIRECTION                     <
>                                                          <
>>>>>>>>>>>>>>>>>>>>>>>>>>>> KEY <<<<<<<<<<<<<<<<<<<<<<<<<<<




USA.gov is the U.S. government's official web portal to all federal, state and local government web resources and services.